Location: Dannhausen
(51.8650°N, 10.1026°E)
Time: 21:52:45
(UTC+00:00)

Cosmos 2360 Rocket - Pass Details

Date: 09 April 2020
Orbit: 834 x 845 km, 71.0° (Epoch: 03 June)

Event Time Altitude Azimuth Distance (km) Brightness Sun altitude
Rises 21:28:15 0° 330° (NNW) 3,394 6.7 -25.4°
Reaches altitude 10° 21:31:04 10° 342° (NNW) 2,458 5.6 -25.7°
Maximum altitude 21:35:53 28° 41° (NE) 1,526 3.7 -26.0°
Enters shadow 21:37:40 24° 71° (ENE) 1,686 3.6 -26.2°
